Hourly Weather Roundup
Issued by NWS Central Illinois

Home | Current Version | Previous Version | Text Only | Print | Product List | Glossary On
Versions: 1 2 3 4 5 6 7 8 9 10 11 12 13 14 15 16 17 18 19 20 21 22 23 24 25 26 27 28 29 30 31 32 33 34 35 36 37 38 39 40 41 42 43 44 45 46 47 48 49 50
000
NZUS43 KILX 231610
HWRILX

Area Weather Roundup
National Weather Service Lincoln IL
1100 AM CDT SUN JUL 23 2017

NOTE:  "FAIR" indicates few or no clouds below 12,000 feet, with
       no sigificant weather and/or obstructions to visibility.


CITY           SKY/WX    TMP DP  RH WIND       PRES   REMARKS
Bloomington    PTSUNNY   83  74  74 W15       29.87S HX  89
Champaign      CLOUDY    83  75  77 W12G20    29.85R HX  90
Danville       PTSUNNY   83  76  80 W9        29.81R HX  90
Decatur        CLOUDY    84  74  71 NW13      29.87R HX  91
Effingham      PTSUNNY   78  71  79 S10       29.92R HX  80
Flora          CLOUDY    79  73  82 S12       29.95R HX  82
Galesburg      MOSUNNY   84  75  74 W10       29.89R HX  91
Jacksonville   SUNNY     85  73  67 NW9       29.89R HX  91
Lacon          SUNNY     83  73  71 NW7       29.85R HX  90
Lawrenceville  CLOUDY    75  32  20 SW12      29.89R
Litchfield     CLOUDY    76  67  73 SW7       29.92R
$$


CITY           SKY/WX    TMP DP  RH WIND       PRES   REMARKS
Lincoln        MOSUNNY   85  76  75 NW9       29.87R HX  95
Macomb         MOSUNNY   84  75  73 NW10G16   29.90R HX  92
Mattoon        CLOUDY    80  73  79 SW10      29.87R HX  84
Mt Carmel AP   NOT AVBL
Olney-Noble AP PTSUNNY   76  74  93 SW6       29.92R
Paris AP       PTSUNNY   81  76  86 NW10G16   29.85R HX  87
Peoria         PTSUNNY   85  75  72 NW9       29.86S HX  93
Pontiac        MOSUNNY   82  78  88 W12       29.85S HX  92
Rantoul        CLOUDY    83  75  77 NW10G20   29.84R HX  91
Robinson       CLOUDY    76  72  86 SW10      29.88S
Springfield    PTSUNNY   86  76  71 NW15      29.88R HX  96
Taylorville    CLOUDY    81  73  76 W6        29.89R HX  86
$$

...REGIONAL REPORTS...


CITY           SKY/WX    TMP DP  RH WIND       PRES   REMARKS
Chicago O`Hare MOSUNNY   86  65  49 VRB7      29.80S HX  88
Kankakee       PTSUNNY   72  71  96 CALM      29.84R
Moline         SUNNY     85  73  67 W7        29.85R HX  91
Mount Sterling SUNNY     85  74  68 NW9       29.89R HX  92
Mount Vernon   CLOUDY    79  71  76 VRB5      29.92R HX  82
Pittsfield     CLOUDY    86  73  64 NW7       29.91R HX  93
Quincy         SUNNY     86  72  62 W7        29.89R HX  92
Rockford       MOSUNNY   85  69  58 W6        29.84S HX  89
$$


CITY           SKY/WX    TMP DP  RH WIND       PRES   REMARKS
Burlington     MOSUNNY   86  76  71 NW10      29.87R HX  96
Cedar Rapids   SUNNY     84  74  71 W16       29.85F HX  91
Des Moines     SUNNY     85  69  58 NW13      29.91R HX  89
Kirksville     SUNNY     86  74  67 NW8       29.92S HX  94
Ottumwa        SUNNY     88  69  53 W15       29.89S HX  92
St Louis       CLOUDY    81  67  62 SW12      29.94R HX  83
$$


CITY           SKY/WX    TMP DP  RH WIND       PRES   REMARKS
Terre Haute    CLOUDY    75  70  84 W9        29.86R
Evansville     CLOUDY    76  70  82 S5        29.91F THUNDER
Indianapolis   CLOUDY    76  72  87 CALM      29.79F
Lafayette      CLOUDY    79  75  87 W6        29.81R HX  83
Madison        CLOUDY    80  66  62 VRB6      29.82R HX  82
Milwaukee      MOSUNNY   84  67  56 W12       29.80R HX  86
$$






USA.gov is the U.S. government's official web portal to all federal, state and local government web resources and services.